Temp
15 15 15 15 15 15 13 11 11 11 10 10 10 10 9 9 8 7 6 6 6 7 7 7 7 7 8 8 8 8 8 8 7 7 7 7 7 8 8 8 8 7 7 7 7 6 6 6 6
15 15 15 15 14 14 12 11 12 13 12 10 11 9 9 7 6 6 6 6 7 7 7 7 7 8 8 8 8 8 7 7 7 6 6 6 6 6 6 6 7 7 7 7 7 7 7 6 6
15 15 15 14 13 13 11 11 11 12 11 11 11 10 10 6 6 6 5 5 6 6 6 6 7 7 7 7 7 7 7 7 7 7 6 6 6 6 6 6 6 6 6 6 7 7 7 6 6
15 15 14 14 13 12 12 11 11 12 11 11 10 10 8 5 6 6 5 5 5 6 6 6 7 6 6 6 6 6 6 6 6 6 6 6 6 6 6 6 6 6 6 6 6 6 6 6 6
14 14 14 12 10 10 10 10 11 11 11 11 11 10 8 5 6 5 6 6 5 6 6 6 6 6 6 6 6 6 6 6 5 5 5 5 5 5 5 5 5 5 5 5 5 6 5 5 5
14 13 12 11 9 9 9 9 10 10 10 11 10 9 8 6 5 5 5 5 6 6 6 6 6 6 5 6 6 6 6 6 6 6 5 5 5 5 5 5 5 5 5 4 5 5 5 5 5
14 13 11 9 8 8 8 8 9 10 11 10 9 9 8 6 5 5 5 5 6 6 5 5 5 5 5 5 5 6 6 6 6 5 5 5 5 5 5 5 5 4 4 4 4 4 4 5 5
14 13 10 9 9 9 8 8 9 9 10 9 8 8 8 6 5 6 5 5 5 5 5 4 4 5 5 5 6 6 6 6 5 5 5 5 5 5 5 5 5 4 4 4 4 4 3 3 4
14 14 10 11 10 11 9 9 9 9 9 9 8 8 8 7 6 5 4 4 4 4 4 5 5 5 5 6 6 6 6 5 5 5 5 5 4 5 4 4 4 4 4 4 3 3 2 2 2
14 14 12 11 11 12 10 9 9 8 6 7 8 8 9 8 7 6 5 5 5 4 5 5 5 5 5 6 5 5 5 4 4 4 4 4 4 4 3 3 2 2 2 2 2 2 2 1 -0
14 14 13 12 11 11 11 9 8 7 8 8 9 8 8 6 6 5 5 5 5 5 5 5 5 5 5 5 5 5 4 4 4 4 4 3 3 2 2 2 1 1 0 0 0 0 1 0 -1
14 13 12 12 11 10 10 10 9 8 8 8 8 6 5 5 4 4 5 5 5 4 5 5 5 5 5 4 4 4 4 3 3 3 3 3 2 2 1 1 1 0 -0 -0 -1 -1 -1 -0 -1
12 12 11 11 10 9 9 10 9 8 8 7 6 5 4 4 4 5 5 5 4 4 4 5 5 4 4 4 3 3 3 3 3 3 3 2 2 1 1 0 0 -0 -1 -1 -1 -1 -2 -2 -1
12 11 10 9 9 9 8 9 8 8 7 6 5 4 4 4 5 5 5 4 4 4 4 4 4 3 3 3 3 3 2 2 2 2 2 1 1 0 -0 -1 -1 -1 -1 -1 -1 -1 -1 -2 -1
11 11 8 8 9 9 8 8 8 7 6 5 5 5 5 5 5 4 4 4 4 4 4 3 3 3 2 3 2 2 2 2 1 1 1 -0 -0 -1 -2 -2 -2 -2 -2 -2 -2 -2 -2 -2 -2
10 9 8 7 8 8 8 8 8 7 6 5 5 5 6 6 5 4 4 4 4 3 3 3 2 2 2 2 2 1 1 1 1 0 -1 -1 -2 -2 -3 -3 -2 -3 -2 -2 -2 -2 -2 -2 -2
9 10 9 8 8 7 8 8 7 7 6 6 6 6 6 6 5 4 4 3 3 3 3 2 2 2 2 1 1 1 0 0 0 -1 -2 -2 -3 -3 -3 -2 -3 -2 -3 -3 -3 -3 -3 -2 -2
11 11 10 10 10 9 8 7 7 7 5 5 6 6 6 6 5 4 3 3 3 2 2 2 2 2 1 1 0 -0 -0 -1 -1 -2 -3 -3 -3 -2 -2 -3 -3 -3 -3 -3 -3 -3 -3 -3 -3
11 11 11 10 9 8 8 7 7 6 5 6 6 6 6 5 4 3 3 3 2 2 2 2 2 2 1 0 -0 -1 -1 -1 -2 -3 -3 -3 -3 -3 -3 -4 -4 -4 -3 -3 -3 -3 -4 -4 -3
11 11 10 9 8 8 7 6 6 5 6 5 5 5 4 3 3 3 3 2 2 2 2 2 2 1 1 -0 -1 -1 -2 -2 -3 -3 -4 -4 -4 -4 -4 -4 -4 -4 -4 -4 -4 -4 -4 -5 -5
11 11 10 9 8 7 8 6 6 5 4 4 4 4 3 4 3 3 3 2 2 2 2 2 1 1 -0 -1 -2 -2 -3 -4 -4 -4 -4 -4 -4 -5 -5 -5 -5 -5 -5 -5 -5 -5 -5 -5 -7
10 10 9 9 9 8 7 6 6 5 5 4 4 3 3 3 3 3 3 2 2 2 2 1 0 -0 -1 -2 -2 -3 -3 -4 -4 -4 -5 -5 -5 -5 -6 -6 -6 -6 -5 -5 -5 -6 -6 -6 -7
10 9 9 9 8 8 6 6 7 5 5 5 4 4 4 4 4 3 3 2 2 1 1 0 -1 -1 -2 -2 -3 -3 -4 -5 -5 -5 -5 -6 -6 -6 -6 -7 -6 -6 -6 -6 -6 -7 -8 -8 -8
10 9 9 8 8 6 8 7 7 7 8 6 5 4 4 4 3 3 3 2 1 1 -0 -1 -2 -2 -3 -3 -3 -4 -5 -5 -5 -5 -5 -6 -6 -6 -7 -7 -7 -7 -7 -8 -8 -8 -8 -9 -9
9 9 8 6 5 4 8 7 8 7 7 7 5 5 4 4 3 3 2 1 1 -0 -1 -1 -2 -3 -3 -3 -4 -5 -5 -6 -6 -6 -6 -6 -7 -7 -7 -7 -8 -8 -9 -9 -10 -10 -10 -11 -11
9 9 8 6 3 6 8 7 8 7 7 6 4 4 4 4 3 2 2 1 0 -1 -1 -2 -3 -3 -3 -4 -5 -5 -6 -6 -6 -6 -7 -7 -8 -8 -8 -8 -9 -10 -10 -11 -11 -12 -12 -12 -13
8 8 8 8 7 5 7 7 7 8 7 6 6 5 4 4 3 2 1 0 -1 -1 -1 -2 -3 -3 -4 -5 -5 -6 -6 -6 -7 -7 -8 -8 -8 -9 -9 -9 -10 -11 -11 -12 -12 -13 -13 -13 -13
8 8 7 7 5 4 5 6 8 8 7 6 5 5 4 3 2 1 0 -0 -1 -1 -2 -3 -3 -4 -5 -6 -6 -7 -7 -7 -7 -8 -8 -8 -9 -9 -10 -10 -11 -12 -12 -12 -13 -13 -13 -13 -14
8 7 7 7 7 4 2 6 7 7 6 5 5 4 4 3 2 1 -0 -1 -1 -2 -3 -3 -4 -5 -6 -6 -7 -7 -7 -8 -8 -8 -8 -9 -9 -10 -10 -11 -12 -12 -13 -13 -13 -14 -14 -14 -14
7 8 8 7 6 6 4 6 7 6 6 5 4 3 3 2 1 0 -1 -1 -3 -3 -3 -4 -5 -6 -6 -7 -7 -7 -8 -8 -8 -8 -9 -9 -10 -10 -11 -12 -12 -13 -13 -13 -13 -14 -14 -14 -14
Height
3177 3176 3175 3176 3180 3178 3177 3182 3181 3180 3181 3182 3184 3184 3183 3181 3181 3186 3186 3185 3183 3181 3180 3179 3178 3177 3175 3174 3172 3170 3168 3166 3163 3161 3159 3157 3154 3151 3148 3146 3143 3141 3139 3136 3134 3133 3131 3130 3128
3178 3177 3176 3176 3179 3178 3181 3182 3184 3182 3182 3184 3184 3181 3182 3182 3182 3181 3184 3185 3183 3181 3181 3180 3178 3176 3174 3173 3171 3168 3166 3163 3161 3158 3155 3153 3151 3148 3144 3141 3138 3135 3134 3133 3131 3127 3125 3125 3124
3179 3177 3179 3179 3181 3181 3184 3185 3183 3183 3184 3185 3184 3184 3183 3183 3184 3182 3184 3184 3182 3181 3181 3180 3178 3175 3173 3172 3169 3167 3164 3161 3159 3156 3153 3150 3147 3145 3142 3139 3135 3133 3130 3126 3123 3123 3123 3121 3118
3182 3181 3182 3181 3182 3184 3186 3187 3187 3186 3186 3186 3186 3185 3184 3184 3186 3185 3183 3183 3182 3182 3181 3179 3177 3175 3173 3171 3168 3166 3162 3160 3157 3154 3150 3147 3144 3141 3137 3133 3129 3126 3124 3122 3119 3117 3115 3114 3113
3182 3182 3183 3184 3184 3186 3189 3190 3191 3191 3190 3188 3186 3184 3183 3185 3186 3185 3184 3183 3183 3182 3180 3178 3176 3173 3170 3170 3167 3164 3161 3157 3154 3150 3146 3143 3138 3134 3130 3125 3122 3121 3118 3115 3113 3110 3109 3106 3106
3183 3183 3183 3184 3185 3189 3190 3192 3193 3191 3189 3187 3187 3185 3184 3185 3185 3185 3185 3185 3184 3182 3179 3177 3175 3172 3169 3166 3164 3161 3158 3154 3150 3147 3141 3136 3130 3125 3121 3117 3114 3112 3109 3106 3103 3101 3101 3101 3098
3182 3182 3182 3183 3186 3189 3190 3191 3192 3191 3188 3189 3187 3184 3185 3184 3185 3186 3186 3185 3183 3181 3178 3176 3173 3169 3166 3162 3161 3157 3154 3150 3146 3140 3135 3130 3125 3120 3115 3110 3107 3102 3099 3096 3094 3093 3092 3091 3090
3181 3181 3183 3185 3187 3188 3188 3190 3190 3191 3190 3190 3187 3186 3185 3185 3185 3186 3185 3185 3183 3181 3177 3174 3171 3168 3165 3160 3156 3153 3148 3144 3140 3135 3130 3126 3121 3116 3111 3105 3098 3093 3088 3085 3082 3079 3076 3076 3075
3182 3182 3182 3184 3186 3186 3188 3189 3191 3191 3190 3188 3188 3188 3187 3185 3186 3187 3187 3185 3183 3180 3176 3173 3170 3167 3162 3157 3153 3148 3142 3137 3132 3128 3123 3118 3113 3108 3102 3096 3091 3086 3081 3076 3073 3069 3065 3064 3063
3183 3183 3184 3186 3186 3186 3187 3188 3188 3187 3186 3186 3187 3188 3186 3186 3186 3187 3187 3186 3183 3179 3176 3171 3167 3163 3159 3153 3148 3143 3138 3133 3128 3122 3117 3111 3104 3098 3092 3086 3081 3077 3072 3068 3065 3061 3057 3052 3050
3184 3185 3184 3186 3188 3188 3188 3187 3186 3185 3184 3185 3189 3188 3187 3188 3188 3188 3187 3184 3180 3176 3172 3168 3164 3158 3153 3149 3144 3139 3135 3128 3123 3117 3110 3102 3096 3090 3084 3079 3074 3069 3064 3060 3056 3053 3049 3045 3042
3184 3185 3187 3188 3189 3190 3190 3188 3186 3185 3184 3184 3185 3186 3186 3188 3189 3188 3185 3181 3179 3175 3170 3166 3161 3155 3149 3144 3140 3135 3129 3122 3116 3109 3103 3096 3090 3083 3076 3070 3064 3059 3054 3050 3045 3042 3039 3036 3032
3183 3185 3187 3189 3190 3190 3190 3190 3189 3187 3185 3185 3185 3186 3187 3187 3187 3186 3184 3180 3176 3172 3168 3163 3158 3152 3146 3141 3136 3130 3124 3117 3111 3103 3096 3089 3081 3074 3067 3061 3055 3049 3044 3039 3035 3032 3029 3026 3022
3184 3185 3187 3189 3190 3189 3191 3190 3191 3189 3188 3187 3187 3187 3187 3187 3185 3183 3181 3178 3175 3170 3165 3160 3154 3148 3142 3136 3130 3125 3118 3112 3104 3096 3088 3081 3074 3067 3060 3053 3047 3041 3036 3031 3026 3022 3019 3017 3014
3184 3185 3187 3189 3189 3188 3189 3190 3189 3188 3187 3187 3187 3187 3187 3186 3184 3182 3180 3177 3173 3168 3162 3156 3150 3144 3138 3131 3125 3119 3114 3106 3098 3091 3083 3076 3068 3061 3054 3047 3041 3035 3029 3025 3020 3017 3012 3008 3004
3185 3187 3185 3187 3187 3187 3187 3187 3188 3187 3187 3185 3185 3184 3185 3184 3183 3181 3179 3176 3172 3166 3160 3153 3146 3140 3135 3128 3121 3114 3108 3101 3093 3085 3077 3069 3062 3056 3049 3044 3038 3031 3025 3020 3015 3009 3004 2999 2995
3185 3186 3185 3185 3185 3186 3187 3184 3186 3185 3185 3183 3183 3183 3183 3182 3182 3180 3178 3174 3169 3163 3157 3150 3144 3138 3131 3124 3118 3110 3103 3095 3088 3081 3072 3065 3059 3053 3046 3039 3033 3027 3020 3015 3010 3006 2998 2990 2986
3183 3185 3184 3184 3185 3183 3184 3182 3182 3182 3182 3180 3180 3180 3180 3180 3180 3178 3175 3171 3166 3160 3153 3146 3140 3134 3128 3121 3114 3106 3099 3091 3084 3076 3068 3061 3054 3046 3039 3033 3027 3021 3016 3009 3005 3000 2993 2983 2977
3182 3182 3181 3182 3184 3183 3182 3180 3179 3179 3178 3177 3177 3176 3177 3177 3177 3175 3172 3168 3162 3156 3150 3144 3138 3131 3124 3118 3110 3102 3095 3086 3078 3071 3063 3055 3048 3042 3035 3028 3023 3017 3011 3003 2998 2994 2988 2979 2971
3180 3179 3178 3180 3181 3181 3179 3177 3176 3174 3175 3175 3175 3174 3173 3173 3173 3172 3169 3165 3159 3154 3147 3141 3134 3127 3118 3110 3103 3096 3088 3080 3072 3065 3058 3052 3046 3038 3031 3024 3018 3011 3006 3000 2994 2987 2981 2974 2965
3177 3177 3176 3179 3179 3178 3177 3175 3172 3171 3172 3171 3170 3170 3168 3168 3169 3168 3167 3163 3157 3151 3144 3137 3130 3121 3113 3107 3100 3093 3086 3078 3070 3063 3055 3048 3040 3034 3027 3021 3014 3008 3001 2995 2988 2982 2974 2968 2962
3176 3176 3178 3179 3178 3177 3176 3172 3169 3167 3167 3166 3164 3165 3164 3166 3166 3166 3164 3160 3155 3148 3140 3133 3125 3117 3110 3103 3096 3087 3078 3070 3062 3057 3051 3044 3036 3030 3025 3019 3012 3005 2998 2992 2984 2976 2970 2962 2957
3175 3175 3176 3177 3176 3174 3172 3172 3163 3163 3161 3159 3159 3160 3161 3164 3164 3164 3161 3157 3151 3143 3136 3129 3121 3113 3107 3099 3091 3083 3075 3068 3061 3055 3049 3041 3035 3028 3022 3016 3010 3003 2996 2989 2981 2974 2967 2960 2953
3172 3173 3174 3174 3174 3171 3167 3168 3158 3156 3155 3156 3156 3157 3160 3162 3162 3161 3158 3155 3148 3139 3132 3125 3118 3111 3103 3095 3087 3080 3073 3066 3059 3053 3044 3037 3031 3025 3018 3013 3006 3000 2993 2985 2978 2971 2963 2956 2949
3170 3171 3172 3173 3172 3167 3163 3163 3155 3153 3154 3154 3156 3158 3160 3160 3159 3159 3156 3151 3143 3137 3129 3121 3115 3107 3099 3091 3084 3077 3069 3061 3054 3048 3042 3034 3028 3022 3016 3009 3003 2997 2990 2982 2975 2968 2960 2953 2946
3167 3169 3170 3172 3170 3163 3162 3157 3152 3152 3151 3153 3155 3156 3157 3156 3157 3155 3152 3147 3140 3133 3125 3117 3111 3104 3097 3090 3082 3074 3065 3058 3051 3045 3038 3032 3025 3019 3013 3007 3000 2994 2987 2980 2972 2965 2958 2952 2945
3165 3166 3168 3167 3165 3163 3157 3154 3151 3151 3151 3151 3152 3153 3154 3154 3153 3151 3148 3142 3136 3128 3121 3114 3107 3101 3094 3086 3078 3070 3063 3056 3050 3043 3037 3030 3024 3018 3011 3005 2998 2991 2985 2978 2970 2964 2958 2951 2944
3162 3164 3165 3166 3165 3162 3154 3152 3148 3149 3150 3151 3151 3151 3150 3150 3149 3147 3143 3137 3131 3125 3118 3112 3105 3098 3089 3081 3074 3067 3061 3054 3047 3041 3035 3029 3022 3016 3010 3003 2997 2990 2983 2976 2969 2963 2956 2949 2943
3159 3160 3161 3162 3162 3160 3158 3150 3148 3148 3149 3149 3149 3148 3147 3147 3146 3143 3139 3133 3128 3122 3116 3108 3101 3093 3085 3078 3071 3065 3058 3052 3044 3038 3032 3027 3021 3014 3007 3000 2994 2988 2981 2974 2968 2960 2954 2948 2942
3155 3156 3157 3158 3158 3156 3155 3149 3147 3147 3148 3147 3146 3145 3145 3144 3143 3139 3134 3130 3125 3119 3111 3104 3096 3089 3082 3076 3069 3061 3054 3047 3042 3037 3031 3025 3019 3012 3006 2999 2992 2986 2980 2973 2966 2959 2952 2946 2939
Wind_Speed
10 12 9 11 8 14 16 9 25 22 15 10 14 6 13 11 10 10 7 5 4 9 10 8 9 9 11 13 14 15 16 17 17 17 17 18 19 20 23 24 24 23 23 22 21 20 19 19 19
10 11 10 11 18 19 12 12 13 5 10 13 7 13 11 22 10 11 4 9 9 9 10 11 11 12 13 13 15 16 17 18 18 18 19 19 20 20 22 23 24 26 27 27 27 26 25 24 23
10 8 10 11 13 15 12 17 20 14 9 4 1 6 8 10 7 4 2 6 8 10 10 10 10 11 13 14 14 14 17 18 19 20 21 21 22 22 24 25 27 29 30 31 31 32 31 30 29
9 7 7 15 17 15 17 15 10 9 6 3 2 4 10 10 2 2 6 4 8 8 7 7 9 11 12 14 16 18 21 22 23 25 26 27 29 29 30 31 31 32 31 33 35 35 34 34 34
8 8 5 18 20 21 16 12 8 5 1 7 11 3 6 10 5 3 5 5 5 4 5 8 11 13 16 16 18 21 24 26 28 29 31 32 34 35 36 37 38 37 37 37 37 37 38 39 37
8 3 14 16 22 18 16 10 7 3 7 14 8 3 7 8 5 1 2 3 4 5 9 12 15 17 21 24 25 26 27 29 30 31 32 34 35 37 38 40 41 41 42 42 42 42 41 40 39
7 1 14 25 23 20 15 10 1 6 12 9 6 9 6 6 4 3 2 3 5 10 14 16 19 22 25 27 27 29 32 32 31 30 29 30 34 37 40 43 45 46 44 44 44 45 44 45 45
1 4 23 22 20 16 12 8 1 6 8 4 7 7 2 9 7 1 3 6 10 11 14 17 20 22 25 29 33 34 34 32 29 31 33 34 35 37 38 41 43 44 44 45 47 47 48 48 48
2 3 19 17 18 9 7 5 7 7 6 5 4 1 2 3 4 4 4 8 10 12 16 19 21 25 28 31 33 33 31 32 34 36 37 38 38 39 39 38 36 36 36 38 40 43 45 46 49
1 8 16 10 5 4 3 2 6 5 2 6 5 3 4 4 8 10 9 12 14 15 18 23 26 28 30 32 31 31 32 34 36 38 38 39 41 41 40 38 36 34 34 34 35 38 41 41 39
4 8 14 8 5 2 3 3 8 5 8 9 12 10 7 8 11 12 14 16 17 20 24 26 28 31 33 31 30 32 34 36 38 39 40 41 42 41 39 38 37 35 34 33 33 34 37 38 36
7 9 10 11 8 1 4 6 7 9 16 13 13 12 11 11 13 15 14 15 17 21 25 27 30 32 31 31 32 34 37 38 39 41 43 44 43 42 41 40 39 37 36 34 34 32 34 37 39
5 5 10 10 7 5 2 7 9 7 10 9 11 11 11 12 15 13 13 16 20 22 25 30 31 30 31 32 34 35 37 40 43 44 46 46 45 45 44 43 40 39 38 36 34 34 33 34 39
4 8 11 11 7 4 3 5 5 5 7 7 8 9 11 12 11 12 16 17 19 23 29 32 31 31 33 35 37 38 40 42 45 46 47 46 45 44 42 40 38 38 38 38 34 35 33 31 34
9 5 14 11 8 6 7 8 9 7 7 7 8 9 9 10 11 13 15 18 22 27 33 32 31 32 35 38 40 40 41 44 46 47 47 44 42 40 37 36 37 37 35 34 33 33 33 32 31
11 8 16 15 12 9 10 11 13 13 9 11 12 13 12 11 12 14 18 21 24 31 33 32 32 34 36 38 40 42 42 44 46 46 43 40 36 35 34 35 36 35 34 36 36 36 35 35 35
15 9 15 17 17 13 15 19 16 16 12 13 14 16 15 15 15 15 19 25 27 35 34 32 33 35 38 39 40 41 43 45 45 43 39 37 34 34 35 36 36 37 35 36 37 34 35 36 35
15 17 20 22 20 23 24 27 25 19 16 16 17 18 19 20 20 18 22 28 31 37 37 35 36 38 38 38 39 40 42 44 43 41 37 37 38 38 36 35 36 36 36 34 34 35 33 36 38
11 15 21 21 21 18 25 27 28 25 20 20 19 20 23 25 24 23 25 30 33 41 39 37 39 40 39 38 39 41 43 44 42 40 37 37 37 37 36 35 34 34 34 35 34 34 32 32 35
17 17 21 18 19 15 16 29 32 26 22 22 24 26 29 28 25 25 27 31 35 43 40 38 40 41 41 41 42 44 45 44 42 39 36 35 34 35 36 36 35 35 33 33 33 33 33 32 33
15 13 17 15 17 15 15 20 24 27 28 28 30 31 31 29 27 27 28 32 38 44 40 40 42 42 42 42 42 43 42 39 35 35 35 35 36 36 35 35 35 35 36 36 37 35 35 35 31
11 12 15 16 14 10 14 7 24 28 31 33 34 34 32 30 30 29 29 34 41 41 40 42 42 42 42 42 43 44 44 41 39 37 36 35 35 34 34 34 34 34 35 36 37 39 36 36 34
9 10 10 10 13 14 18 11 13 33 36 36 37 36 34 31 31 29 29 34 40 39 39 41 41 41 41 41 43 43 41 37 34 34 33 33 33 33 33 33 33 34 34 35 37 37 36 35 35
9 9 10 10 10 8 21 22 12 25 28 34 38 38 35 32 31 27 29 34 37 37 39 40 40 40 40 42 43 41 38 35 33 33 32 33 33 32 32 34 34 35 35 36 36 36 37 34 33
12 11 2 2 2 8 4 7 21 12 19 24 34 35 32 33 32 27 28 33 36 36 37 39 39 39 41 42 41 38 35 34 33 33 33 32 32 33 34 35 35 35 36 36 36 35 34 34 32
11 11 5 5 3 5 5 7 8 9 16 20 22 24 25 28 27 25 28 33 34 36 38 39 39 39 40 40 39 37 35 33 32 32 31 32 33 34 35 35 36 36 36 35 34 33 33 32 31
11 12 12 7 9 4 6 10 14 11 9 8 11 15 19 23 23 22 28 33 35 37 39 39 39 39 39 38 37 35 33 32 31 30 31 32 33 34 34 35 35 35 34 34 33 31 29 30 29
14 9 6 7 2 4 5 8 12 9 5 5 6 8 13 18 20 22 28 34 35 37 38 37 37 37 38 37 36 34 32 30 30 31 31 32 32 33 34 33 33 33 33 32 30 28 27 28 29
16 17 12 8 5 4 2 5 6 8 8 9 11 10 14 18 20 24 31 33 34 36 36 36 36 36 36 35 34 32 30 30 31 31 31 32 32 33 33 33 32 32 32 32 30 29 28 27 27
14 13 16 10 5 7 4 11 12 7 16 17 15 12 16 19 20 26 31 32 32 36 35 34 35 36 36 35 33 31 30 30 30 31 31 32 32 32 32 31 30 31 32 33 30 29 29 28 28
Wind_Direction
30 12 49 122 127 128 112 144 137 138 139 163 153 148 79 66 69 87 181 299 336 334 321 316 318 326 328 331 335 333 330 325 317 313 312 310 308 307 307 305 300 293 286 279 274 271 267 262 258
23 20 85 115 126 132 108 135 154 129 102 132 144 77 78 86 61 110 196 286 336 331 326 312 318 328 329 328 333 329 326 322 316 310 304 301 298 295 291 288 285 284 287 286 279 269 263 261 259
23 33 108 117 119 114 119 129 128 132 127 54 9 106 29 79 100 65 325 300 336 337 327 325 330 334 331 330 332 333 328 324 320 317 315 311 308 306 301 295 288 284 281 278 276 277 277 270 262
40 76 78 123 120 122 146 138 134 142 137 104 134 302 23 83 178 99 274 283 304 316 312 323 335 336 332 335 336 332 326 324 320 318 315 312 311 307 301 296 289 286 283 279 276 274 271 269 268
49 85 88 121 118 125 142 142 151 150 190 20 357 26 75 127 133 242 310 304 287 284 312 333 336 331 326 332 331 327 325 323 321 317 314 311 307 303 298 295 293 290 287 284 280 277 273 269 267
26 102 132 135 129 136 145 163 171 239 17 352 348 32 50 126 103 11 302 296 280 329 333 333 330 327 330 331 329 325 322 318 315 313 311 308 304 301 297 293 291 289 286 282 278 275 274 274 269
3 179 153 145 135 138 140 147 157 344 353 347 349 338 94 122 154 173 212 263 323 336 336 330 331 333 333 329 326 323 321 320 320 316 310 306 303 301 299 299 298 295 291 286 282 279 275 270 268
338 351 151 153 152 142 159 167 9 345 333 329 22 355 6 173 183 241 325 335 335 330 326 325 328 328 325 322 321 322 321 321 318 313 312 309 304 301 300 298 295 292 289 287 284 280 272 267 261
346 184 163 167 167 195 178 253 284 291 328 17 68 307 248 202 129 109 347 326 320 317 314 318 324 324 322 321 322 322 321 321 320 317 315 314 314 313 309 304 300 296 293 291 291 288 284 276 268
242 176 169 187 221 270 196 245 311 323 2 116 27 24 351 357 11 5 339 317 315 317 322 328 327 324 324 323 324 324 324 323 320 321 322 320 318 317 316 313 307 304 302 299 293 289 285 286 282
146 177 178 180 173 327 358 336 321 312 349 342 346 350 342 358 355 343 327 319 324 331 333 331 331 328 326 328 327 326 325 325 326 325 323 323 323 322 317 313 310 308 305 302 295 289 285 283 281
184 133 160 181 175 82 340 358 348 330 325 323 330 334 345 343 333 328 332 334 336 337 337 336 332 328 330 329 327 327 327 326 326 326 326 327 324 322 318 314 311 310 308 306 300 296 288 281 278
119 147 160 163 159 188 330 354 323 296 310 306 314 324 327 323 326 340 344 344 344 340 337 335 333 333 330 329 329 327 327 329 331 331 330 329 326 323 320 317 315 314 314 312 309 305 299 291 282
256 160 159 159 172 192 269 322 280 274 265 277 295 308 319 331 346 350 354 347 339 338 337 335 336 333 332 331 330 330 332 333 333 332 330 328 325 324 321 321 320 321 320 319 318 315 311 302 293
156 175 154 169 200 250 233 276 292 275 263 257 289 315 340 354 355 360 351 346 342 340 338 337 335 335 334 332 332 332 334 335 333 331 329 327 326 325 327 329 327 327 327 326 324 318 312 307 300
161 174 168 201 215 239 249 260 288 266 278 289 309 321 331 340 354 358 353 345 340 340 340 337 337 336 335 333 333 333 335 335 333 330 327 327 328 330 331 330 328 328 328 326 325 320 314 311 307
185 215 217 210 228 224 249 255 263 263 267 283 304 311 317 323 334 335 337 343 338 340 340 338 337 336 335 335 334 334 335 334 331 329 329 329 330 331 329 329 329 328 326 325 322 320 316 313 310
207 227 230 239 244 235 248 250 261 273 259 276 291 304 311 313 313 316 330 336 336 339 339 338 337 336 336 335 334 334 333 333 333 332 332 332 333 332 332 330 329 327 326 326 323 319 318 316 313
257 268 256 244 235 249 250 250 261 275 254 273 288 300 299 300 305 312 328 332 332 337 336 335 335 335 334 335 335 335 335 335 336 334 335 333 331 331 332 333 331 331 329 329 329 325 324 317 315
254 260 244 235 227 243 254 252 257 255 263 271 277 280 285 290 299 309 322 328 331 332 333 333 333 334 337 337 337 337 338 338 337 336 333 331 333 336 336 335 334 334 335 334 333 331 329 329 325
246 244 220 213 217 229 261 228 240 239 244 252 258 263 269 282 295 305 318 326 329 328 331 332 333 337 338 337 337 337 337 337 336 334 334 336 339 338 337 337 336 336 337 337 336 338 335 335 334
217 199 206 230 241 233 225 254 231 243 246 247 253 259 267 281 293 302 314 326 323 327 330 333 335 337 338 336 336 339 338 337 338 337 338 339 339 338 338 338 338 338 338 337 338 340 341 335 334
242 218 219 239 238 264 234 248 244 235 240 248 252 255 264 276 288 297 316 322 322 327 331 334 336 337 335 336 338 337 336 336 337 337 337 338 339 340 339 339 339 339 339 340 340 339 341 338 334
228 233 240 247 249 260 267 228 253 243 259 252 249 255 262 274 286 300 315 317 323 328 332 335 335 334 335 337 337 335 335 336 338 337 339 340 340 341 340 339 340 340 341 341 341 340 340 342 338
240 238 260 282 241 231 230 240 252 270 256 258 256 263 272 279 284 297 306 317 326 329 333 333 334 335 336 335 335 335 336 339 339 339 341 341 342 342 341 340 340 341 343 342 341 342 343 345 343
222 215 208 232 221 270 276 248 249 276 266 264 257 263 271 275 282 294 306 320 326 331 334 333 334 334 333 334 336 337 338 339 339 339 342 343 344 342 341 341 341 341 342 342 342 344 344 346 348
220 224 240 262 279 286 251 275 284 282 280 271 271 272 276 278 285 291 309 324 328 332 332 332 332 332 333 335 338 338 337 338 339 342 345 347 345 342 341 340 341 340 343 343 343 345 344 344 347
224 229 213 217 253 268 276 278 274 309 323 330 295 302 286 284 282 299 317 323 327 330 331 331 331 332 335 338 338 336 337 339 342 345 347 347 345 342 340 339 341 343 345 346 346 345 343 344 344
226 223 225 233 237 206 296 263 294 308 329 346 330 304 285 279 287 308 316 320 325 329 331 332 331 334 337 338 337 336 338 341 345 347 347 347 346 344 341 342 344 348 350 349 349 346 345 344 344
220 229 233 225 226 228 258 284 288 312 332 328 323 295 282 282 295 310 314 318 323 331 333 333 333 336 337 337 337 339 342 345 346 346 348 348 348 346 344 346 349 352 353 351 349 348 346 346 344